Weather History for Massena, NY

Change the Weather History Date:

Thursday, December 15, 2011

  Actual Average Record
Temperature  
Mean Temperature 45 °F 22 °F  
Max Temperature 53 °F 31 °F 56 °F (1975)
Min Temperature 37 °F 14 °F -15 °F (1980)
Degree Days  
Heating Degree Days 20 43  
Month to date heating degree days 458 593  
Since 1 July heating degree days 1750 2362  
Moisture  
Dew Point 43 °F    
Average Humidity 83    
Maximum Humidity 89    
Minimum Humidity 77    
Precipitation  
Precipitation 0.27 in 0.08 in 0.83 in (1951)
Month to date precipitation 1.18 1.27  
Year to date precipitation 30.06 33.80  
Sea Level Pressure  
Sea Level Pressure 29.69 in    
Wind  
Wind Speed 16 mph (SSW)    
Max Wind Speed 29 mph    
Max Gust Speed 40 mph    
Visibility 8 miles    
Events Rain    
T = Trace of Precipitation, MM = Missing Value Source: NWS Daily Summary

Daily Weather History Graph

Daily Weather History Graph

Search for Another Location

Airport:

Trip Planner

Search our weather history database for the weather conditions in past years. The results will help you decide how hot, cold, wet, or windy it might be!

Date:

Astronomy

Dec. 15, 2011 Rise Set
Actual Time 7:30 AM EST 4:18 PM EST
Civil Twilight 6:56 AM EST 4:52 PM EST
Nautical Twilight 6:19 AM EST 5:29 PM EST
Astronomical Twilight 5:43 AM EST 6:05 PM EST
Moon 9:53 PM EST (12/15) 10:34 AM EST (12/15)
Length of Visible Light 9h 55m
Length of Day
8h 48m
Waning Gibbous, 75% of the Moon is Illuminated
Dec 15
Waning Gibbous
Dec 17
Last Quarter
Dec 24
New
Jan 1
First Quarter
Jan 9
Full

Hourly Weather History & Observations

Time (EST) Temp. Windchill Dew Point Humidity Pressure Visibility Wind Dir Wind Speed Gust Speed Precip Events Conditions
12:04 AM 37.4 °F 34.9 °F 33.8 °F 87% 30.01 in 5.0 mi East 3.5 mph - 0.00 in Rain Light Rain
12:37 AM 37.4 °F 33.8 °F 35.6 °F 93% 29.99 in 2.5 mi NNE 4.6 mph - N/A Rain Light Rain
12:53 AM 37.9 °F 33.5 °F 35.1 °F 89% 29.99 in 2.5 mi NE 5.8 mph - 0.04 in Rain Light Rain
1:04 AM 37.4 °F 34.9 °F 35.6 °F 93% 29.97 in 3.0 mi NE 3.5 mph - 0.00 in   Overcast
1:21 AM 37.4 °F 34.9 °F 35.6 °F 93% 29.97 in 2.5 mi NE 3.5 mph - 0.02 in Rain Light Rain
1:53 AM 39.0 °F 36.8 °F 36.0 °F 89% 29.94 in 3.0 mi East 3.5 mph - 0.04 in Rain Light Rain
2:53 AM 44.1 °F 39.5 °F 39.9 °F 85% 29.89 in 10.0 mi South 8.1 mph - 0.01 in   Overcast
3:53 AM 46.0 °F 39.9 °F 42.1 °F 86% 29.85 in 4.0 mi SSW 13.8 mph 21.9 mph 0.05 in Rain Light Rain
4:23 AM 44.6 °F 38.1 °F 42.8 °F 93% 29.81 in 3.0 mi SSW 13.8 mph - 0.01 in Rain Light Rain
4:53 AM 46.0 °F 40.2 °F 42.1 °F 86% 29.81 in 9.0 mi South 12.7 mph - 0.01 in   Overcast
5:40 AM 46.4 °F 40.1 °F 42.8 °F 87% 29.77 in 10.0 mi SSW 15.0 mph - 0.00 in Rain Light Rain
5:53 AM 48.0 °F - 43.0 °F 83% 29.77 in 9.0 mi South 15.0 mph 21.9 mph 0.00 in   Overcast
6:53 AM 48.9 °F - 43.0 °F 80% 29.74 in 10.0 mi South 15.0 mph 21.9 mph 0.00 in   Overcast
7:12 AM 50.0 °F - 42.8 °F 76% 29.72 in 10.0 mi SSW 18.4 mph 26.5 mph N/A   Overcast
7:53 AM 50.0 °F - 45.0 °F 83% 29.71 in 4.0 mi SSW 21.9 mph 32.2 mph 0.01 in Rain Light Rain
8:53 AM 51.8 °F - 44.6 °F 76% 29.67 in 10.0 mi SSW 21.9 mph 29.9 mph N/A   Overcast
9:53 AM 51.8 °F - 44.6 °F 76% 29.65 in 10.0 mi SSW 15.0 mph 27.6 mph N/A   Overcast
10:53 AM 51.1 °F - 44.1 °F 77% 29.62 in 10.0 mi SSW 21.9 mph 33.4 mph 0.00 in   Overcast
11:53 AM 50.0 °F - 45.0 °F 83% 29.59 in 5.0 mi SSW 17.3 mph 27.6 mph 0.01 in Rain Light Rain
12:53 PM 50.0 °F - 46.0 °F 86% 29.55 in 10.0 mi SSW 23.0 mph 33.4 mph 0.00 in   Overcast
1:53 PM 50.0 °F - 46.0 °F 86% 29.54 in 9.0 mi SW 21.9 mph 26.5 mph 0.00 in   Overcast
2:53 PM 52.0 °F - 46.9 °F 83% 29.49 in 10.0 mi SSW 20.7 mph 33.4 mph 0.00 in   Overcast
3:53 PM 52.0 °F - 46.9 °F 83% 29.49 in 10.0 mi SSW 18.4 mph 27.6 mph N/A   Overcast
4:53 PM 52.0 °F - 48.0 °F 86% 29.50 in 6.0 mi SSW 18.4 mph 33.4 mph 0.04 in Rain Light Rain
5:53 PM 52.0 °F - 48.0 °F 86% 29.50 in 10.0 mi SW 17.3 mph 25.3 mph 0.05 in Rain Light Rain
6:49 PM 51.8 °F - 48.2 °F 88% 29.49 in 10.0 mi SW 15.0 mph 21.9 mph 0.01 in   Overcast
6:53 PM 51.8 °F - 48.2 °F 88% 29.50 in 10.0 mi SSW 13.8 mph 21.9 mph N/A   Overcast
7:53 PM 52.0 °F - 48.0 °F 86% 29.50 in 10.0 mi SSW 15.0 mph 24.2 mph 0.00 in   Overcast
8:53 PM 52.0 °F - 48.0 °F 86% 29.52 in 10.0 mi SW 17.3 mph 25.3 mph N/A   Overcast
9:05 PM 51.8 °F - 46.4 °F 82% 29.51 in 10.0 mi SW 18.4 mph 27.6 mph N/A   Overcast
9:53 PM 51.1 °F - 46.0 °F 83% 29.53 in 10.0 mi SW 16.1 mph 28.8 mph N/A   Overcast
10:53 PM 50.0 °F - 44.1 °F 80% 29.53 in 10.0 mi SW 17.3 mph 26.5 mph 0.00 in   Overcast
11:53 PM 48.9 °F - 42.1 °F 77% 29.54 in 10.0 mi SW 13.8 mph 21.9 mph 0.00 in   Overcast